| time (UTC) | temp F | wind direction | speed MPH | gust MPH | rain 1hr in | rain 24hr in | rain mn in | humidity % | barometer mb |
| 20260508154344 | 65 | 49 | 0.0 | 4.0 | 0.00 | 0.00 | 0.00 | 87 | 1015.0 |
| 20260508153414 | 64 | 78 | 0.0 | 2.0 | 0.00 | 0.00 | 0.00 | 88 | 1015.2 |
| 20260508152346 | 63 | 78 | 0.0 | 0.0 | 0.00 | 0.00 | 0.00 | 88 | 1015.4 |
| 20260508151411 | 63 | 78 | 0.0 | 0.0 | 0.00 | 0.00 | 0.00 | 89 | 1015.3 |
| 20260508150331 | 63 | 78 | 0.0 | 2.0 | 0.00 | 0.00 | 0.00 | 89 | 1015.5 |
| 20260508145407 | 62 | 78 | 1.0 | 4.0 | 0.00 | 0.00 | 0.00 | 89 | 1015.4 |
| 20260508144330 | 62 | 61 | 0.0 | 2.0 | 0.00 | 0.00 | 0.00 | 88 | 1015.5 |
| 20260508143344 | 62 | 61 | 0.0 | 2.0 | 0.00 | 0.00 | 0.00 | 88 | 1015.5 |
| 20260508142351 | 62 | 61 | 0.0 | 4.0 | 0.00 | 0.00 | 0.00 | 87 | 1015.8 |
| 20260508141420 | 62 | 59 | 1.0 | 3.0 | 0.00 | 0.00 | 0.00 | 86 | 1015.7 |
| 20260508140329 | 62 | 59 | 0.0 | 2.0 | 0.00 | 0.00 | 0.00 | 87 | 1015.4 |
| 20260508135358 | 61 | 59 | 0.0 | 0.0 | 0.00 | 0.00 | 0.00 | 86 | 1015.4 |
| 20260508134330 | 61 | 65 | 1.0 | 4.0 | 0.00 | 0.00 | 0.00 | 86 | 1015.4 |
| 20260508133358 | 61 | 38 | 0.0 | 2.0 | 0.00 | 0.00 | 0.00 | 87 | 1015.1 |
| 20260508132326 | 61 | 42 | 0.0 | 2.0 | 0.00 | 0.00 | 0.00 | 86 | 1015.4 |
| 20260508131348 | 61 | 45 | 1.0 | 3.0 | 0.00 | 0.00 | 0.00 | 86 | 1015.3 |
| 20260508130358 | 61 | 63 | 1.0 | 5.0 | 0.00 | 0.00 | 0.00 | 86 | 1015.1 |
| 20260508125416 | 61 | 63 | 0.0 | 2.0 | 0.00 | 0.00 | 0.00 | 86 | 1015.4 |
| 20260508124343 | 61 | 63 | 0.0 | 1.0 | 0.00 | 0.00 | 0.00 | 86 | 1015.5 |
| 20260508123408 | 61 | 63 | 1.0 | 3.0 | 0.00 | 0.00 | 0.00 | 86 | 1015.5 |
| 20260508122341 | 61 | 67 | 0.0 | 2.0 | 0.00 | 0.00 | 0.00 | 86 | 1015.8 |
| 20260508121409 | 61 | 67 | 0.0 | 3.0 | 0.00 | 0.00 | 0.00 | 86 | 1015.5 |
| 20260508120429 | 61 | 51 | 0.0 | 3.0 | 0.00 | 0.00 | 0.00 | 85 | 1015.4 |
| 20260508113342 | 62 | 68 | 0.0 | 0.0 | 0.00 | 0.00 | 0.00 | 84 | 1015.5 |
| 20260508112413 | 62 | 68 | 0.0 | 0.0 | 0.00 | 0.00 | 0.00 | 84 | 1015.8 |
| 20260508111342 | 62 | 68 | 0.0 | 0.0 | 0.00 | 0.00 | 0.00 | 83 | 1015.9 |
| 20260508110406 | 62 | 68 | 0.0 | 0.0 | 0.00 | 0.00 | 0.00 | 82 | 1016.0 |
| 20260508105329 | 62 | 68 | 0.0 | 1.0 | 0.00 | 0.00 | 0.00 | 80 | 1015.9 |
| 20260508104342 | 62 | 68 | 0.0 | 1.0 | 0.00 | 0.00 | 0.00 | 80 | 1015.9 |
| 20260508103413 | 62 | 68 | 0.0 | 1.0 | 0.00 | 0.00 | 0.00 | 80 | 1015.9 |
| 20260508102332 | 62 | 68 | 0.0 | 1.0 | 0.00 | 0.00 | 0.00 | 80 | 1015.4 |
| 20260508101405 | 62 | 68 | 0.0 | 1.0 | 0.00 | 0.00 | 0.00 | 80 | 1015.4 |
| 20260508100330 | 62 | 68 | 0.0 | 0.0 | 0.00 | 0.00 | 0.00 | 80 | 1015.5 |
| 20260508095336 | 62 | 68 | 0.0 | 0.0 | 0.00 | 0.00 | 0.00 | 80 | 1015.3 |
| 20260508094410 | 62 | 68 | 0.0 | 0.0 | 0.00 | 0.00 | 0.00 | 81 | 1015.1 |
| 20260508093334 | 62 | 68 | 0.0 | 2.0 | 0.00 | 0.00 | 0.00 | 81 | 1015.2 |
| 20260508092413 | 62 | 68 | 1.0 | 3.0 | 0.00 | 0.00 | 0.00 | 82 | 1015.0 |
| 20260508090335 | 62 | 68 | 0.0 | 1.0 | 0.00 | 0.00 | 0.00 | 81 | 1015.4 |
| 20260508085343 | 62 | 68 | 0.0 | 1.0 | 0.00 | 0.00 | 0.00 | 80 | 1015.8 |
| 20260508084356 | 62 | 68 | 0.0 | 0.0 | 0.00 | 0.00 | 0.00 | 81 | 1015.7 |
| 20260508083402 | 62 | 68 | 0.0 | 1.0 | 0.00 | 0.00 | 0.00 | 81 | 1015.8 |
| 20260508082327 | 62 | 68 | 0.0 | 0.0 | 0.00 | 0.00 | 0.00 | 80 | 1015.5 |
| 20260508075345 | 63 | 68 | 0.0 | 0.0 | 0.00 | 0.00 | 0.00 | 77 | 1015.9 |
| 20260508074404 | 63 | 68 | 0.0 | 0.0 | 0.00 | 0.00 | 0.00 | 76 | 1016.2 |
| 20260508073326 | 63 | 68 | 0.0 | 0.0 | 0.00 | 0.00 | 0.00 | 75 | 1016.2 |
| 20260508072401 | 63 | 68 | 0.0 | 2.0 | 0.00 | 0.00 | 0.00 | 75 | 1016.3 |
| 20260508071420 | 63 | 68 | 0.0 | 0.0 | 0.00 | 0.00 | 0.00 | 75 | 1016.4 |
| 20260508070345 | 63 | 68 | 0.0 | 0.0 | 0.00 | 0.00 | 0.00 | 76 | 1016.4 |
| 20260508065335 | 63 | 68 | 0.0 | 0.0 | 0.00 | 0.00 | 0.00 | 75 | 1016.4 |
| 20260508064336 | 63 | 68 | 0.0 | 1.0 | 0.00 | 0.00 | 0.00 | 75 | 1016.4 |
| 20260508063347 | 63 | 68 | 0.0 | 1.0 | 0.00 | 0.00 | 0.00 | 75 | 1016.1 |
| 20260508062331 | 63 | 72 | 2.0 | 5.0 | 0.00 | 0.00 | 0.00 | 75 | 1015.6 |
| 20260508061335 | 63 | 83 | 1.0 | 3.0 | 0.00 | 0.00 | 0.00 | 76 | 1015.9 |
| 20260508060338 | 63 | 76 | 0.0 | 1.0 | 0.00 | 0.00 | 0.00 | 75 | 1016.6 |
| 20260508055342 | 63 | 76 | 0.0 | 3.0 | 0.00 | 0.00 | 0.00 | 76 | 1016.6 |
| 20260508054326 | 63 | 38 | 0.0 | 0.0 | 0.00 | 0.00 | 0.00 | 75 | 1016.6 |
| 20260508053339 | 63 | 38 | 0.0 | 1.0 | 0.00 | 0.00 | 0.00 | 76 | 1016.8 |
| 20260508052338 | 63 | 38 | 0.0 | 1.0 | 0.00 | 0.00 | 0.00 | 75 | 1016.7 |
| 20260508051351 | 63 | 26 | 0.0 | 2.0 | 0.00 | 0.00 | 0.00 | 74 | 1016.8 |
| 20260508050334 | 64 | 38 | 0.0 | 3.0 | 0.00 | 0.00 | 0.00 | 75 | 1017.0 |
| 20260508045353 | 63 | 325 | 0.0 | 3.0 | 0.00 | 0.00 | 0.00 | 75 | 1017.3 |
| 20260508044403 | 63 | 337 | 1.0 | 3.0 | 0.00 | 0.00 | 0.00 | 75 | 1017.1 |
| 20260508043336 | 63 | 19 | 0.0 | 0.0 | 0.00 | 0.00 | 0.00 | 75 | 1016.6 |
| 20260508042405 | 63 | 65 | 0.0 | 0.0 | 0.00 | 0.00 | 0.00 | 76 | 1015.8 |
| 20260508041326 | 63 | 75 | 0.0 | 0.0 | 0.00 | 0.00 | 0.00 | 75 | 1015.5 |
| 20260508040403 | 63 | 97 | 0.0 | 2.0 | 0.00 | 0.00 | 0.00 | 74 | 1015.6 |
| 20260508035323 | 63 | 98 | 1.0 | 3.0 | 0.00 | 0.00 | 0.00 | 74 | 1016.1 |
| 20260508034349 | 64 | 73 | 2.0 | 4.0 | 0.00 | 0.00 | 0.00 | 74 | 1016.2 |
| 20260508033418 | 64 | 65 | 0.0 | 0.0 | 0.00 | 0.00 | 0.00 | 73 | 1016.7 |
| 20260508032334 | 64 | 65 | 0.0 | 3.0 | 0.00 | 0.00 | 0.00 | 73 | 1016.9 |
| 20260508031340 | 64 | 286 | 0.0 | 0.0 | 0.00 | 0.00 | 0.00 | 74 | 1017.1 |
| 20260508030411 | 64 | 286 | 0.0 | 0.0 | 0.00 | 0.00 | 0.00 | 74 | 1017.3 |
| 20260508025339 | 64 | 286 | 0.0 | 0.0 | 0.00 | 0.00 | 0.00 | 74 | 1017.4 |
| 20260508024356 | 64 | 286 | 0.0 | 0.0 | 0.00 | 0.00 | 0.00 | 73 | 1017.3 |
| 20260508023418 | 64 | 286 | 0.0 | 2.0 | 0.00 | 0.00 | 0.00 | 72 | 1017.4 |
| 20260508022329 | 64 | 292 | 1.0 | 3.0 | 0.00 | 0.00 | 0.00 | 72 | 1017.4 |
| 20260508021358 | 64 | 140 | 1.0 | 3.0 | 0.00 | 0.00 | 0.00 | 71 | 1016.3 |
| 20260508020420 | 65 | 104 | 1.0 | 6.0 | 0.00 | 0.00 | 0.00 | 70 | 1015.5 |
| 20260508012355 | 66 | 35 | 0.0 | 6.0 | 0.00 | 0.00 | 0.00 | 68 | 1015.3 |
| 20260508011330 | 66 | 59 | 0.0 | 4.0 | 0.00 | 0.00 | 0.00 | 67 | 1015.5 |
| 20260508010409 | 66 | 67 | 1.0 | 5.0 | 0.00 | 0.00 | 0.00 | 66 | 1015.4 |
| 20260508005331 | 66 | 74 | 1.0 | 8.0 | 0.00 | 0.00 | 0.00 | 67 | 1015.0 |
| 20260508004405 | 66 | 304 | 2.0 | 14.0 | 0.00 | 0.00 | 0.00 | 66 | 1014.5 |
| 20260508003342 | 66 | 96 | 5.0 | 12.0 | 0.00 | 0.00 | 0.00 | 65 | 1012.9 |
| 20260508002405 | 67 | 76 | 2.0 | 8.0 | 0.00 | 0.00 | 0.00 | 65 | 1014.6 |
| 20260508001337 | 67 | 90 | 4.0 | 8.0 | 0.00 | 0.00 | 0.00 | 64 | 1015.0 |
| 20260508000353 | 67 | 87 | 5.0 | 8.0 | 0.00 | 0.00 | 0.00 | 64 | 1015.6 |
| 20260507235323 | 67 | 96 | 0.0 | 9.0 | 0.00 | 0.00 | 0.00 | 64 | 1016.3 |
| 20260507233349 | 68 | 64 | 3.0 | 6.0 | 0.00 | 0.00 | 0.00 | 61 | 1016.7 |
| 20260507232407 | 68 | 57 | 1.0 | 6.0 | 0.00 | 0.00 | 0.00 | 60 | 1016.9 |
| 20260507231327 | 69 | 68 | 2.0 | 6.0 | 0.00 | 0.00 | 0.00 | 60 | 1016.9 |
| 20260507230404 | 69 | 65 | 1.0 | 4.0 | 0.00 | 0.00 | 0.00 | 61 | 1016.9 |
| 20260507225420 | 69 | 35 | 1.0 | 9.0 | 0.00 | 0.00 | 0.00 | 61 | 1017.0 |
| 20260507224350 | 69 | 65 | 3.0 | 9.0 | 0.00 | 0.00 | 0.00 | 60 | 1017.2 |
| 20260507223413 | 69 | 26 | 1.0 | 3.0 | 0.00 | 0.00 | 0.00 | 62 | 1017.2 |
| 20260507222334 | 69 | 316 | 1.0 | 9.0 | 0.00 | 0.00 | 0.00 | 62 | 1017.3 |
| 20260507221350 | 69 | 17 | 2.0 | 9.0 | 0.00 | 0.00 | 0.00 | 63 | 1016.7 |
| 20260507220420 | 69 | 72 | 2.0 | 5.0 | 0.00 | 0.00 | 0.00 | 64 | 1017.1 |
| 20260507215337 | 68 | 40 | 1.0 | 6.0 | 0.00 | 0.00 | 0.00 | 64 | 1017.3 |
| 20260507214356 | 69 | 32 | 1.0 | 3.0 | 0.00 | 0.00 | 0.00 | 63 | 1017.4 |
| 20260507212351 | 69 | 108 | 3.0 | 9.0 | 0.00 | 0.00 | 0.00 | 63 | 1017.6 |
| 20260507211420 | 69 | 69 | 1.0 | 4.0 | 0.00 | 0.00 | 0.00 | 64 | 1017.7 |
| 20260507210333 | 68 | 15 | 1.0 | 8.0 | 0.00 | 0.00 | 0.00 | 65 | 1017.6 |
| 20260507205356 | 68 | 11 | 2.0 | 13.0 | 0.00 | 0.00 | 0.00 | 65 | 1017.3 |
| 20260507204420 | 69 | 49 | 3.0 | 8.0 | 0.00 | 0.00 | 0.00 | 64 | 1017.5 |
| 20260507203351 | 69 | 350 | 2.0 | 5.0 | 0.00 | 0.00 | 0.00 | 65 | 1017.5 |
| 20260507202418 | 68 | 34 | 3.0 | 13.0 | 0.00 | 0.00 | 0.00 | 64 | 1017.4 |
| 20260507200354 | 69 | 69 | 1.0 | 10.0 | 0.00 | 0.00 | 0.00 | 66 | 1017.2 |
| 20260507195413 | 69 | 5 | 2.0 | 9.0 | 0.00 | 0.00 | 0.00 | 67 | 1017.3 |
| 20260507194343 | 69 | 5 | 1.0 | 4.0 | 0.00 | 0.00 | 0.00 | 68 | 1018.1 |
| 20260507193358 | 69 | 62 | 2.0 | 5.0 | 0.00 | 0.00 | 0.00 | 69 | 1018.0 |
| 20260507192413 | 68 | 343 | 2.0 | 11.0 | 0.00 | 0.00 | 0.00 | 73 | 1018.0 |
| 20260507191356 | 67 | 13 | 1.0 | 6.0 | 0.00 | 0.00 | 0.00 | 74 | 1018.2 |
| 20260507190422 | 66 | 76 | 2.0 | 9.0 | 0.00 | 0.00 | 0.00 | 77 | 1018.1 |
| 20260507185340 | 64 | 311 | 3.0 | 8.0 | 0.00 | 0.00 | 0.00 | 80 | 1018.0 |
| 20260507184413 | 63 | 69 | 2.0 | 8.0 | 0.00 | 0.00 | 0.00 | 81 | 1018.3 |
| 20260507181355 | 63 | 33 | 1.0 | 5.0 | 0.00 | 0.00 | 0.00 | 80 | 1019.4 |
| 20260507180329 | 63 | 69 | 1.0 | 5.0 | 0.00 | 0.00 | 0.00 | 78 | 1019.3 |
| 20260507174337 | 63 | 75 | 2.0 | 10.0 | 0.00 | 0.00 | 0.00 | 78 | 1018.8 |
| 20260507173410 | 63 | 33 | 1.0 | 5.0 | 0.00 | 0.00 | 0.00 | 80 | 1018.9 |
| 20260507172341 | 63 | 30 | 2.0 | 7.0 | 0.00 | 0.00 | 0.00 | 80 | 1019.0 |
| 20260507171404 | 62 | 44 | 2.0 | 9.0 | 0.00 | 0.00 | 0.00 | 80 | 1018.9 |
| 20260507170341 | 62 | 42 | 1.0 | 5.0 | 0.00 | 0.00 | 0.00 | 82 | 1019.0 |
| 20260507165405 | 61 | 21 | 2.0 | 6.0 | 0.00 | 0.00 | 0.00 | 83 | 1019.2 |
| 20260507164330 | 60 | 49 | 1.0 | 5.0 | 0.00 | 0.00 | 0.00 | 83 | 1019.3 |
| 20260507163330 | 60 | 324 | 1.0 | 4.0 | 0.00 | 0.00 | 0.00 | 84 | 1019.8 |
| 20260507162345 | 60 | 338 | 1.0 | 4.0 | 0.00 | 0.00 | 0.00 | 84 | 1019.4 |